FENGYUN 1C DEB, 30566

Orbit data source: Space-Track

FENGYUN 1C DEB, 30566 is space debris in SSO originally from a launch on Mon, 10 May 1999 UTC launched from the Taiyaun Space Center, China (TSC). Fengyun 1C debris stems from the Chinese weather satellite Fengyun-1C, which was intentionally destroyed by a Chinese anti-satellite missile in 2007. This event dramatically increased the amount of space debris, with thousands of trackable fragments posing hazards to satellites and human spaceflight. The Fengyun 1C debris cloud has become a focal point in discussions about space sustainability and the need for international regulations to prevent the creation of new debris.

Loading next visibility...
Identifier
30566, 1999-025ALG
Orbit
SSO
Country
Flag of CNCN / PRC
Related business
Manufacturer
Unknown
Mission
Spacecraft
Bus & Motor
Unknown
Mass
Unknown
Launch date (UTC)
1999-05-10 (27 years ago)
Launch vehicle
Unknown
Launch site
Taiyaun Space Center, China (TSC)
Object type
Payload
Rocket body
Debris
Shape & HBR
Unknown shape, 0.1 m
Radar Cross Section
Small (<0.1 m²)

Expand to show TLE details & history
Last TLE update: 21 hours ago

TLE from 21 hours ago
0 FENGYUN 1C DEB
1 30566U 99025ALG 26071.05865315  .00001849  00000-0  10128-2 0  9990
2 30566  99.2071 127.0038 0065391 290.8679 133.9074 14.12125544976431
Epoch: 2026-03-12T01:24Z
TLE epoch observation values (Epoch: 2026-03-12T01:24:27.632Z)
Latitude
63.84278°
Longitude
-82.99128°
Altitude
896 km
Speed
7.393 km/s
True Right ascension
07h 11m 21s
True Declination
63° 42' 33"
Sunlit
Object was in daylight at epoch
Visualization orbit readout
Latitude
Unknown
Longitude
Unknown
Altitude
Unknown
Speed
Unknown
Apparent Right ascension
Unknown
Apparent Declination
Unknown
Sunlit
N/A
Visualization observer readout
Local Sidereal Time
02:24:42
Azimuth
Unknown
Elevation
Unknown
Doppler factor
Unknown
Orbital elements
Apogee altitude
896.562 km
Perigee altitude
802.04 km
Semi-major axis
7,227.438 km
Eccentricity
0.00654
Inclination
99.2071°
RAAN
127.0038°
Arg. of periapsis
290.8679°
True anomaly
134.44421°
Mean anomaly
133.9074°
Eccentric anomaly
134.17611°
Mean motion
3.53237 °/min
Orbital period
101.91 mins
BSTAR
0.0010128
Loading maneuver chart data...
Computing Atmospheric mass density...

Documentation

Showing up to 5 results
|